Location: Dal�� Lhota
(48.7500°N, 14.0167°E)
Time: 01:22:03
(UTC+00:00)

COSMOS 2406 - Pass Details

Date: 24 September 2020
Orbit: 844 x 863 km, 71.0° (Epoch: 29 October)

Event Time Altitude Azimuth Distance (km) Brightness Sun altitude
Rises 17:54:08 0° 335° (NNW) 3,415 6.9 -10.2°
Reaches altitude 10° 17:56:50 10° 344° (NNW) 2,476 6.0 -10.7°
Maximum altitude 18:01:59 34° 49° (NE) 1,355 4.0 -11.5°
Enters shadow 18:05:50 16° 107° (ESE) 2,055 4.5 -12.1°
